RH
73 69 67 66 68 71 70 70 72 72 71 69 69 70 72 75 73 33 35 49 56 71 53 22 21 31 15 17 26 40 30 40 32 32 26 25 27 23 23 25 22 19 18 17 40
71 66 63 64 70 69 69 70 72 72 70 69 69 71 74 75 60 27 43 70 67 64 20 22 24 34 25 16 21 21 33 28 29 32 32 28 26 24 26 24 25 26 23 19 52
68 65 65 67 70 68 68 71 72 71 70 69 70 73 76 72 37 25 58 67 60 37 23 23 22 39 38 24 18 25 21 24 21 25 20 20 19 17 19 20 23 26 23 22 19
69 67 69 69 68 67 69 73 73 71 70 70 73 74 72 59 10 26 53 54 52 21 22 22 22 22 26 30 28 29 26 23 24 23 22 20 17 18 17 17 15 15 18 17 18
74 72 72 69 68 68 70 72 73 72 70 72 74 74 51 15 16 21 46 40 24 21 24 25 27 28 27 29 28 27 25 25 24 24 22 19 18 16 13 13 13 12 14 16 16
77 76 74 71 68 69 70 72 73 72 72 75 75 71 38 17 18 28 39 28 25 23 24 25 27 26 29 31 30 28 27 25 24 23 20 22 18 16 11 11 12 13 12 13 16
77 77 74 71 69 70 71 72 73 74 76 75 75 65 42 21 25 38 42 29 29 25 25 25 25 30 31 35 29 30 32 27 21 20 19 16 14 14 12 15 16 16 16 15 15
77 76 75 73 71 72 72 74 76 78 77 76 74 66 31 30 36 39 38 27 26 26 24 24 26 30 32 30 32 32 33 26 17 17 16 16 17 13 15 17 17 16 18 16 15
78 76 75 75 73 72 74 77 82 78 79 76 67 61 28 34 28 28 34 26 24 26 27 24 29 36 34 40 37 37 24 32 26 19 20 19 19 16 15 19 24 24 22 20 18
79 75 74 74 73 74 81 80 79 77 72 64 58 40 28 25 28 25 24 28 27 31 35 36 40 42 42 38 25 27 32 30 32 24 25 28 31 26 24 26 28 27 26 24 21
78 76 73 73 71 72 76 76 42 52 79 37 41 37 30 29 29 25 25 29 33 38 44 46 47 43 37 42 37 40 41 39 32 28 36 39 36 32 30 31 31 29 28 26 25
82 75 74 71 69 72 79 45 34 35 36 46 46 44 41 37 27 24 27 34 42 49 48 47 53 44 45 44 47 47 49 47 39 34 41 41 42 36 34 34 32 32 32 31 28
80 75 73 72 71 78 60 50 47 42 36 41 44 39 35 34 30 26 31 40 47 55 54 55 44 42 45 45 51 48 54 51 51 44 46 48 42 25 22 23 22 24 28 29 28
80 76 74 74 74 64 56 54 53 57 60 45 42 34 37 35 29 24 32 39 46 52 53 62 49 48 48 50 46 63 43 45 50 70 73 50 74 34 20 23 24 23 26 26 24
79 73 72 71 72 60 55 60 65 62 26 43 38 26 33 28 26 27 31 40 53 52 56 56 59 66 77 60 49 57 48 51 55 70 82 49 69 30 25 30 29 30 34 59 53
78 76 75 82 78 63 63 64 66 74 29 35 25 30 34 32 32 32 40 39 42 54 58 56 46 48 52 48 51 45 58 62 66 85 84 53 51 37 42 95 89 72 80 81 64
77 76 75 73 84 72 73 70 76 43 28 27 36 38 37 40 39 45 49 47 49 47 49 50 51 52 48 59 53 64 69 68 58 69 44 36 46 39 92 94 95 93 94 90 83
82 81 78 73 73 75 74 82 53 44 33 28 38 41 47 42 47 46 56 51 50 55 61 56 34 51 53 61 56 56 83 75 88 59 55 42 55 69 70 94 95 94 97 87 86
81 92 79 78 78 74 74 80 42 38 29 37 40 46 46 45 60 54 71 56 53 48 49 60 52 44 35 50 57 96 92 65 90 64 76 52 65 72 60 85 97 96 95 98 89
85 78 71 77 81 74 86 59 36 32 33 35 43 44 52 49 51 71 59 56 53 47 47 52 71 43 48 55 62 71 66 88 82 91 80 58 85 88 93 94 96 100 97 99 94
95 90 84 77 77 76 92 58 36 30 33 38 43 48 49 56 56 70 64 57 52 50 52 53 65 53 51 68 56 68 64 75 86 87 91 86 93 100 98 98 98 98 100 97 96
96 98 85 83 94 92 83 55 42 34 36 40 46 51 56 54 52 52 59 54 53 53 52 54 66 72 50 44 48 52 64 78 92 81 79 86 97 100 100 100 100 98 100 100 100
94 97 78 77 96 88 71 52 38 38 39 39 56 48 48 51 54 52 53 51 56 53 54 58 74 87 43 54 49 71 66 89 96 99 97 95 95 100 100 99 97 99 99 99 99
90 99 85 78 82 78 78 57 54 41 42 47 48 44 46 45 46 52 46 49 54 52 54 63 72 79 79 75 90 85 70 80 83 94 94 95 95 94 96 98 98 98 99 99 99
88 88 74 96 92 63 57 53 52 46 40 42 46 44 44 50 49 53 58 55 53 54 57 56 71 72 66 61 90 98 80 87 91 88 80 94 92 98 99 98 98 98 98 98 96
98 91 73 71 70 59 56 51 49 40 43 47 51 50 48 48 44 54 51 58 55 54 56 64 73 72 68 68 92 95 84 69 89 84 90 97 90 100 96 81 81 88 94 95 94
85 71 66 69 60 60 59 51 47 54 62 46 50 54 54 52 51 49 49 54 54 55 67 70 75 78 70 62 97 93 97 97 91 88 92 88 99 100 84 82 87 82 85 87 89
Wind_Speed
7 5 4 3 1 3 5 5 7 8 10 12 14 16 17 19 15 2 6 5 6 12 6 3 6 5 3 3 2 3 3 5 6 7 6 6 12 10 8 11 10 6 10 13 11
8 8 5 4 3 2 4 5 6 9 9 12 13 14 14 15 4 7 4 9 9 8 4 6 5 4 3 2 2 4 4 7 4 3 5 8 12 15 11 14 15 15 10 9 5
10 8 5 4 4 4 4 5 6 7 9 11 13 13 13 4 2 0 8 10 9 7 1 3 2 2 3 1 2 2 5 3 1 4 8 8 15 12 18 16 9 10 14 15 19
11 8 6 5 5 5 5 6 8 8 9 10 13 14 11 1 1 2 8 10 7 5 3 5 4 3 2 1 2 4 6 2 4 6 10 12 12 18 23 20 18 18 18 20 18
11 9 7 6 6 6 6 6 7 9 9 11 11 13 2 2 3 0 8 8 2 3 7 4 8 2 1 3 4 6 3 7 9 16 15 16 19 22 27 24 23 25 22 21 19
13 11 10 7 6 6 7 7 8 8 7 9 11 9 1 3 2 3 5 3 4 4 4 6 3 1 0 3 2 3 10 15 12 14 13 17 18 10 5 18 19 17 20 21 18
15 12 10 8 6 6 7 9 9 9 6 6 6 3 2 4 2 4 3 1 1 1 2 2 2 2 1 4 4 6 12 9 8 1 3 8 17 18 15 7 11 14 14 17 18
17 13 10 9 5 4 8 9 12 11 7 3 3 3 2 1 2 5 1 1 0 2 2 1 2 2 1 4 5 6 2 5 1 13 4 3 23 12 4 11 18 23 25 22 21
17 14 12 9 4 3 8 10 8 1 7 5 3 2 3 2 1 2 0 1 3 2 2 3 3 3 1 2 3 4 8 9 10 6 6 7 26 5 15 25 28 24 23 25 26
18 16 12 9 5 3 6 6 7 9 5 1 2 2 1 2 1 2 1 0 2 2 3 4 4 1 2 1 4 6 9 9 15 2 8 18 31 34 26 25 27 26 24 24 28
20 17 14 10 5 2 3 4 1 2 1 2 1 2 2 6 1 1 1 2 1 4 2 2 1 6 7 7 7 7 13 18 23 18 17 22 26 31 34 24 28 27 26 26 27
23 19 16 11 6 2 5 3 3 2 1 2 2 4 3 3 2 1 2 2 1 2 0 1 6 5 4 6 6 7 13 18 24 13 14 22 25 34 31 30 26 30 29 28 29
22 19 15 12 6 7 4 5 3 4 3 1 3 3 1 3 1 2 3 3 2 1 3 4 2 3 2 8 7 9 11 17 17 26 21 12 18 19 23 19 22 24 27 28 29
22 19 15 14 6 4 4 5 4 3 4 3 3 3 4 2 0 2 3 2 2 1 1 6 1 2 2 9 5 10 12 16 13 14 11 13 11 25 21 24 21 23 22 25 28
24 20 14 9 7 5 5 5 4 3 3 6 2 4 4 2 2 1 0 2 3 2 1 3 1 2 4 9 6 9 6 14 18 16 14 4 7 13 25 27 25 23 24 21 25
22 18 14 4 3 4 6 7 1 4 6 5 4 4 4 2 1 2 2 3 2 0 3 9 4 4 5 6 11 11 10 18 6 2 6 7 4 21 16 23 22 23 17 18 22
24 19 9 4 6 8 6 3 4 5 2 7 5 4 4 2 2 3 3 5 4 5 6 6 3 3 4 5 3 1 11 5 2 3 7 7 13 9 20 19 21 19 17 18 19
24 15 6 1 5 8 4 3 5 4 4 4 5 7 5 1 2 3 3 3 4 1 2 5 3 1 1 4 8 8 5 4 6 6 14 13 4 6 22 16 19 18 15 18 19
23 3 4 3 4 2 3 3 5 5 8 10 6 4 3 2 3 0 2 3 2 2 4 3 6 1 8 7 2 1 4 3 5 9 6 5 3 4 25 22 18 20 20 20 20
6 6 3 6 4 3 3 3 3 4 7 5 5 3 4 4 2 3 1 1 2 2 1 0 6 2 5 5 5 2 5 2 3 6 7 5 5 12 22 22 22 20 21 20 19
3 6 0 2 3 3 4 3 4 4 5 5 6 6 4 5 3 3 3 1 0 1 1 0 2 6 5 1 7 5 4 4 4 5 5 7 5 11 15 16 18 18 19 20 20
3 6 1 1 3 1 3 4 4 5 2 5 6 5 5 4 3 3 4 3 2 1 4 1 3 6 7 11 2 5 9 4 4 3 5 7 4 9 12 13 15 15 17 16 14
5 5 1 2 4 3 2 4 3 5 4 4 4 3 3 5 4 3 3 3 4 1 3 2 3 5 3 5 4 7 14 10 8 4 4 5 4 7 11 15 15 15 15 14 16
5 6 2 1 1 4 5 4 5 3 5 6 5 5 4 3 1 4 2 1 1 2 6 3 3 5 4 5 3 5 16 14 10 3 4 7 5 13 15 15 15 17 14 13 14
2 4 5 6 4 3 4 5 10 5 3 4 3 5 5 4 3 3 2 2 1 1 2 2 4 4 10 13 3 4 13 15 11 11 6 3 6 10 11 12 12 13 15 18 19
4 5 2 3 8 6 3 4 7 4 4 3 7 6 4 5 3 4 4 3 4 1 2 1 2 3 4 5 10 4 13 12 10 11 6 5 6 5 9 11 18 18 17 19 19
1 1 5 1 4 4 3 5 8 7 6 5 9 6 5 4 4 4 5 4 3 2 2 2 0 3 3 5 3 4 8 7 8 14 8 9 7 5 9 14 17 18 19 19 18
Wind_Direction
238 244 253 274 283 333 329 354 348 349 349 343 346 337 343 339 333 54 41 300 293 305 329 320 27 19 50 98 82 133 212 235 243 241 277 317 313 299 304 282 294 305 309 311 343
223 241 242 250 257 277 312 337 343 340 347 340 339 334 339 338 345 48 326 328 330 334 7 25 18 26 70 47 78 198 203 221 225 256 304 320 319 311 293 297 298 282 278 307 331
222 232 238 230 259 286 314 319 328 334 338 336 328 331 334 342 125 136 332 345 350 360 47 17 11 68 86 1 58 115 230 203 230 11 360 323 299 304 288 285 287 309 306 305 310
219 221 214 233 263 284 308 315 323 330 334 336 326 331 334 110 17 230 343 345 344 8 82 30 18 53 94 228 24 275 246 253 301 335 322 296 297 280 274 276 281 286 293 295 284
206 202 206 225 259 280 292 306 313 323 332 330 328 335 359 95 155 89 354 335 342 39 49 64 51 50 27 280 306 222 265 300 283 290 282 271 260 263 275 277 270 276 273 273 271
195 200 197 212 241 267 289 298 302 311 323 331 337 342 16 129 159 29 354 344 30 44 45 52 65 35 339 276 263 346 293 288 286 263 268 276 283 268 275 282 279 277 283 283 279
200 187 203 208 227 268 291 298 297 295 304 323 346 14 5 151 94 345 319 81 318 19 62 77 110 40 273 289 320 290 299 320 279 337 252 312 265 244 279 304 313 322 316 308 303
195 183 198 209 221 276 293 294 289 275 256 261 21 8 142 320 337 333 350 39 125 116 136 86 128 93 240 310 339 320 302 339 176 332 274 313 283 311 359 343 314 307 302 294 288
191 183 182 213 201 270 294 303 294 164 163 154 65 23 146 298 72 13 334 334 325 33 21 131 92 56 30 340 323 22 303 293 299 202 319 249 293 316 297 302 289 283 277 284 282
183 174 183 198 178 267 288 212 92 82 95 134 98 95 283 159 336 4 47 62 47 3 41 48 62 112 121 180 294 313 300 274 281 224 299 286 279 287 284 279 274 278 275 268 275
176 173 175 186 174 197 62 131 86 35 11 232 89 351 353 302 282 101 141 94 59 52 20 25 272 233 240 217 272 281 274 282 279 287 295 276 282 290 284 278 278 272 266 262 257
170 179 167 170 173 141 134 182 194 158 129 223 287 290 235 292 39 27 145 86 54 352 199 313 251 252 261 264 254 270 282 280 287 292 308 294 289 277 284 284 275 275 271 266 259
170 169 171 152 160 132 186 180 154 98 96 232 195 208 230 164 114 271 148 99 98 175 198 227 301 38 239 272 260 261 259 282 274 312 306 297 284 275 281 282 292 274 264 266 261
166 165 174 145 149 153 176 155 142 113 93 185 212 187 123 157 334 215 205 129 126 260 296 249 302 34 359 276 268 280 256 269 284 312 305 9 294 307 320 303 310 290 282 263 260
154 159 168 159 130 158 141 130 129 45 207 148 144 140 135 168 148 58 287 86 172 205 89 271 204 262 268 252 179 244 229 282 281 285 300 312 258 285 319 327 320 312 311 316 286
147 150 153 132 90 106 120 124 58 61 214 151 122 170 119 51 5 338 29 52 100 55 241 263 285 271 225 279 232 279 314 295 287 253 257 236 275 309 359 324 307 309 16 10 22
140 152 165 162 155 146 144 137 87 210 168 151 142 126 104 55 83 22 60 49 34 353 353 317 238 204 200 268 250 117 328 306 271 211 259 206 313 335 351 352 351 21 18 29 38
135 141 132 252 138 136 121 82 181 142 139 131 116 111 107 110 61 352 122 112 66 94 301 337 353 97 98 312 287 292 246 290 302 303 300 308 260 350 0 352 352 10 8 33 38
122 108 126 198 144 143 109 168 198 177 148 137 109 104 135 130 142 184 80 153 110 29 14 307 269 253 312 315 287 69 221 296 266 262 281 294 314 242 357 1 2 5 10 17 25
122 122 146 161 179 79 91 174 164 139 121 117 116 136 144 152 157 62 93 210 135 175 299 271 289 259 292 271 151 259 322 296 211 301 297 292 58 330 351 5 1 8 14 13 14
87 101 344 187 87 87 167 186 143 140 122 114 130 126 127 137 143 160 171 205 189 314 95 170 200 299 289 67 355 342 313 291 269 243 285 315 70 353 351 3 9 6 19 14 13
111 98 257 116 127 182 148 188 109 136 107 96 94 95 118 137 143 159 181 169 187 93 330 151 281 281 298 298 117 348 332 288 255 287 263 266 82 355 1 6 15 12 17 18 13
92 91 197 222 143 163 202 137 108 160 128 115 112 117 123 144 127 176 184 155 169 348 214 165 201 310 19 121 33 18 353 335 282 239 284 347 32 4 3 10 16 14 13 17 17
109 117 88 47 321 142 154 133 119 71 69 79 109 94 110 114 86 158 150 332 312 234 220 221 230 204 230 248 9 323 11 5 353 281 345 34 1 357 5 4 8 8 11 20 17
55 152 167 171 222 177 113 140 135 121 82 107 67 122 136 126 133 139 129 312 330 347 190 226 255 229 250 262 175 21 29 14 7 347 49 68 25 6 3 357 1 12 15 14 17
136 128 121 102 129 130 138 167 130 110 123 116 130 152 143 147 162 156 145 185 221 153 290 254 238 313 320 109 169 102 30 30 20 358 63 95 63 21 359 12 21 19 13 12 11
90 18 96 57 134 126 179 155 148 116 30 108 139 126 160 202 177 200 187 215 225 266 265 227 348 355 298 356 341 66 16 36 56 34 358 22 357 16 29 30 23 17 15 12 12